[[{"header":{"parameterUnit":"m.s-1","parameterCategory":1,"la1":30.2991,"la2":30.254,"lo1":-89.0895,"lo2":-89.0444,"dy":0.0017,"dx":0.0017,"nx":28,"ny":28,"refTime":"2025-02-23T03:00:00:Z","depth":0,"parameterNumber":2,"parameterNumberName":"U-component_of_WINDS"},"data":[0,0,0,0,0,0,0,0,0,0,0,0,0,0,0,0,0,0,0,0,0,0,0,0,0,0,0,0,0,0,0,0,0,0,0,0,0,0,0,0,0,0,0,0,0,0,0,0,0,0,0,0,0,0,0,0,0,0,-0.3931,-0.393,0,-0.3881,-0.388,-0.388,-0.3818,-0.3817,-0.3816,-0.3816,-0.3762,-0.3762,-0.3761,0,0,0,0,0,0,0,0,0,0,0,0,0,-0.3973,-0.3973,-0.3931,-0.393,-0.393,-0.3881,-0.388,-0.3879,-0.3819,-0.3817,-0.3816,-0.3815,-0.3763,-0.3762,-0.3761,0,0,0,0,0,0,0,0,0,0,0,0,0,-0.3942,-0.3973,-0.3931,-0.3893,-0.389,-0.3881,-0.388,-0.3879,-0.3819,-0.3817,-0.3816,-0.3815,-0.3763,-0.3762,-0.3761,-0.3785,0,0,-0.3759,-0.3759,0,0,0,0,0,0,0,0,-0.3944,-0.3941,-0.39,-0.3896,-0.3892,-0.3854,-0.3876,-0.3848,-0.3819,-0.3846,-0.3816,-0.3814,-0.3794,-0.3791,-0.3784,-0.3783,-0.378,-0.3759,-0.3758,-0.3758,-0.3758,0,0,0,0,0,0,0,-0.3946,-0.3943,-0.3911,-0.3899,-0.3894,-0.3879,-0.3873,-0.387,-0.3828,-0.3843,-0.3839,-0.3834,-0.3792,-0.3785,-0.3783,-0.378,-0.3759,-0.3758,-0.3758,-0.3757,-0.3798,-0.3799,0,0,0,0,0,0,-0.3954,-0.3945,-0.3913,-0.3909,-0.3915,-0.3879,-0.3873,-0.3868,-0.3828,-0.3821,-0.3835,-0.3831,-0.3787,-0.3784,-0.378,-0.3808,-0.3758,-0.3757,-0.3757,-0.3796,-0.3798,-0.38,0,0,0,0,0,0,-0.3955,-0.3952,-0.3915,-0.3926,-0.392,-0.388,-0.3875,-0.3868,-0.3861,-0.3822,-0.3814,-0.3836,-0.3786,-0.3782,-0.3785,-0.3805,-0.3757,-0.3756,-0.3794,-0.3797,-0.3799,-0.3862,0,0,0,0,0,0,-0.3957,-0.3953,-0.3962,-0.3927,-0.392,-0.3921,-0.3876,-0.3868,-0.386,-0.3855,-0.3821,-0.3814,-0.3785,-0.3787,-0.3784,-0.3803,-0.3756,-0.3792,-0.3795,-0.3798,-0.3858,-0.3867,-0.3874,0,0,0,0,0,-0.3959,-0.398,-0.3962,-0.3959,-0.393,-0.3922,-0.3918,-0.3884,-0.3862,-0.3871,-0.3846,-0.3815,-0.3803,-0.3788,-0.3784,-0.3804,-0.3791,-0.3795,-0.3798,-0.3855,-0.3865,-0.3874,0,0,0,0,0,0,-0.4018,-0.3975,-0.3954,-0.3966,-0.3948,-0.3911,-0.3921,-0.3895,-0.3883,-0.3878,-0.3835,-0.3828,-0.3838,-0.382,-0.3804,-0.3826,-0.3793,-0.3796,-0.3837,-0.3846,-0.3854,-0.3859,-0.3755,0,0,0,0,0,-0.4032,-0.4029,-0.3992,-0.4006,-0.3998,-0.3961,-0.3956,-0.3932,-0.3912,-0.3904,-0.3879,-0.386,-0.3852,-0.3848,-0.3838,-0.3855,-0.3848,-0.3867,-0.3874,-0.3881,-0.3885,-0.3895,-0.3904,-0.3811,-0.3811,-0.3811,0,0,-0.4062,-0.4038,-0.4039,-0.4017,-0.4,-0.3999,-0.3955,-0.3955,-0.3954,-0.3903,-0.3906,-0.3888,-0.3864,-0.3875,-0.3878,-0.3861,-0.3909,-0.3885,-0.3891,-0.3891,-0.3899,-0.3908,-0.3916,-0.3813,-0.3813,-0.3813,0,0,-0.4115,-0.4097,-0.4107,-0.4092,-0.4068,-0.4043,-0.4046,-0.4014,-0.4,-0.4002,-0.3965,-0.3963,-0.3949,-0.3935,-0.3926,-0.3976,-0.3949,-0.3974,-0.4015,-0.4025,-0.4033,-0.4039,-0.4059,-0.4067,-0.3977,-0.3978,-0.3978,0,-0.4155,-0.4152,-0.4115,-0.4119,-0.4111,-0.4066,-0.4077,-0.4063,-0.4037,-0.4033,-0.4014,-0.3998,-0.3978,-0.3987,-0.4,-0.3993,-0.3996,-0.3978,-0.4035,-0.4041,-0.4046,-0.4065,-0.4073,-0.3981,-0.3981,-0.398,-0.398,0,-0.4203,-0.4202,-0.4213,-0.4191,-0.4184,-0.4191,-0.4156,-0.4153,-0.4129,-0.4108,-0.4111,-0.4087,-0.4073,-0.4072,-0.4048,-0.4078,-0.4069,-0.4042,-0.4009,-0.4059,-0.4076,-0.4083,-0.3986,-0.3985,-0.3984,-0.3983,0,0,-0.4293,-0.4252,-0.4257,-0.4247,-0.4218,-0.4216,-0.4221,-0.4208,-0.4208,-0.4192,-0.4196,-0.4187,-0.4164,-0.4153,-0.4127,-0.4136,-0.4181,-0.4109,-0.4108,-0.4126,-0.4216,-0.4237,-0.4246,-0.4162,-0.4163,-0.4164,-0.4219,0,-0.4344,-0.4351,-0.4319,-0.4335,-0.4334,-0.4292,-0.4297,-0.428,-0.426,-0.4256,-0.4233,-0.4229,-0.4197,-0.4191,-0.4198,-0.4174,-0.4199,-0.417,-0.4167,-0.4168,-0.4177,-0.4255,-0.4277,-0.433,-0.4225,-0.4226,-0.4227,0,-0.4403,-0.4392,-0.4409,-0.4381,-0.4379,-0.4384,-0.4371,-0.4368,-0.4348,-0.4333,-0.4323,-0.4293,-0.4297,-0.4264,-0.427,-0.4251,-0.4248,-0.4236,-0.4237,-0.4238,-0.4202,-0.4259,-0.4345,-0.4354,-0.4236,-0.4236,-0.4235,0,-0.4471,-0.4459,-0.4468,-0.4461,-0.4428,-0.4433,-0.4419,-0.4398,-0.4393,-0.4381,-0.4378,-0.4366,-0.4361,-0.4353,-0.4322,-0.43,-0.4332,-0.4296,-0.4321,-0.4322,-0.4331,-0.4332,-0.4421,-0.4326,-0.4326,-0.4325,-0.4325,0,-0.4531,-0.4544,-0.4498,-0.4504,-0.4517,-0.448,-0.4494,-0.4476,-0.4458,-0.446,-0.4422,-0.4425,-0.4382,-0.4381,-0.4356,-0.4367,-0.4363,-0.4352,-0.4346,-0.4357,-0.4359,-0.4356,-0.4352,-0.4328,-0.4327,-0.4327,-0.4326,0,-0.461,-0.4579,-0.4587,-0.4555,-0.4548,-0.4559,-0.4532,-0.4537,-0.4515,-0.4518,-0.4517,-0.4482,-0.4478,-0.4446,-0.4435,-0.4418,-0.4439,-0.4424,-0.4446,-0.4442,-0.4471,-0.447,-0.4563,-0.4574,-0.447,-0.4471,-0.4472,0,-0.4652,-0.466,-0.4631,-0.463,-0.4618,-0.4617,-0.4612,-0.4576,-0.4573,-0.4552,-0.456,-0.4553,-0.4546,-0.4543,-0.4517,-0.4508,-0.4495,-0.4528,-0.4493,-0.4505,-0.4499,-0.45,-0.4501,-0.4536,-0.4537,-0.4538,-0.4539,0,-0.473,-0.4715,-0.471,-0.4701,-0.4697,-0.4687,-0.4675,-0.4677,-0.4637,-0.4636,-0.4632,-0.4627,-0.4616,-0.4611,-0.4599,-0.4585,-0.4557,-0.455,-0.4556,-0.4569,-0.4583,-0.4578,-0.4469,-0.4549,-0.4548,-0.4547,-0.4547,-0.4546,-0.4793,-0.48,-0.4781,-0.4777,-0.4765,-0.4755,-0.4759,-0.4738,-0.4734,-0.4724,-0.4702,-0.4703,-0.4684,-0.4665,-0.4653,-0.4654,-0.4636,-0.4644,-0.4647,-0.465,-0.4657,-0.4581,-0.4651,-0.4651,-0.465,-0.465,-0.465,0,-0.4872,-0.4858,-0.4855,-0.4841,-0.4838,-0.4811,-0.4797,-0.4797,-0.4799,-0.4784,-0.4778,-0.4776,-0.4771,-0.4745,-0.4738,-0.4743,-0.473,-0.4742,-0.4743,-0.4741,-0.4671,-0.4668,-0.4753,-0.4753,-0.4753,-0.4753,-0.4753,-0.4753,-0.4913,-0.4925,-0.4908,-0.4913,-0.4898,-0.4899,-0.4894,-0.4885,-0.4874,-0.4873,-0.4869,-0.4852,-0.4833,-0.4825,-0.482,-0.4812,-0.4813,-0.483,-0.4819,-0.4755,-0.4745,-0.4736,-0.4733,-0.483,-0.483,-0.4888,-0.4889,-0.4889]},{"header":{"parameterUnit":"m.s-1","parameterCategory":1,"la1":30.2991,"la2":30.254,"lo1":-89.0895,"lo2":-89.0444,"dy":0.0017,"dx":0.0017,"nx":28,"ny":28,"refTime":"2025-02-23T03:00:00:Z","depth":0,"parameterNumber":3,"parameterNumberName":"V-component_of_WINDS"},"data":[0,0,0,0,0,0,0,0,0,0,0,0,0,0,0,0,0,0,0,0,0,0,0,0,0,0,0,0,0,0,0,0,0,0,0,0,0,0,0,0,0,0,0,0,0,0,0,0,0,0,0,0,0,0,0,0,0,0,1.0045,1.0044,0,0.9956,0.9955,0.9954,0.9947,0.9948,0.9949,0.995,0.9854,0.9851,0.9847,0,0,0,0,0,0,0,0,0,0,0,0,0,1.0203,1.02,1.0045,1.0044,1.0043,0.9956,0.9955,0.9954,0.9947,0.9948,0.995,0.9951,0.9855,0.9851,0.9847,0,0,0,0,0,0,0,0,0,0,0,0,0,1.0126,1.02,1.0045,1.0029,1.0027,0.9956,0.9955,0.9953,0.9947,0.9949,0.995,0.9951,0.9857,0.9852,0.9847,0.9785,0,0,0.9831,0.9828,0,0,0,0,0,0,0,0,1.0131,1.0121,1.0033,1.003,1.0027,0.9965,0.9976,0.9897,0.9947,0.9977,0.995,0.9952,0.9889,0.9882,0.9862,0.978,0.9776,0.983,0.9827,0.9825,0.9823,0,0,0,0,0,0,0,1.0136,1.0124,1.001,1.0031,1.0028,1.0025,1.0015,0.9961,0.9926,0.9975,0.9974,0.9964,0.9888,0.9867,0.9859,0.9775,0.983,0.9826,0.9822,0.982,0.9636,0.9634,0,0,0,0,0,0,1.0145,1.0129,1.0012,1.0007,1.0084,1.0021,1.001,0.9983,0.9926,0.9919,0.9963,0.9964,0.9875,0.9865,0.9856,0.9777,0.9825,0.982,0.9817,0.9637,0.9635,0.9633,0,0,0,0,0,0,1.0149,1.0135,1.0016,1.0068,1.0052,1.0016,0.9986,0.9981,0.9959,0.9917,0.9911,0.9947,0.9876,0.9863,0.9802,0.9774,0.9818,0.9813,0.964,0.9637,0.9634,0.9622,0,0,0,0,0,0,1.0153,1.0136,1.0113,1.0067,1.005,0.9965,0.9984,0.9978,0.995,0.9951,0.9901,0.9894,0.9876,0.981,0.9797,0.9768,0.9809,0.9642,0.9638,0.9635,0.9624,0.9619,0.9614,0,0,0,0,0,1.0159,1.0113,1.0112,1.0098,1.0021,0.9964,0.9953,0.9934,0.9948,0.9924,0.9897,0.9896,0.978,0.9804,0.9789,0.9758,0.9643,0.9639,0.9635,0.9627,0.962,0.9614,0,0,0,0,0,0,1.0154,1.0106,1.0105,1.0043,1.0008,0.9963,0.9931,0.9928,0.9887,0.9889,0.9866,0.9855,0.9794,0.977,0.9798,0.9694,0.9713,0.9706,0.9711,0.9705,0.97,0.9705,0.9804,0,0,0,0,0,1.0147,1.0106,1.0066,1.0014,0.9997,0.9968,0.9942,0.9931,0.9892,0.9877,0.9846,0.9807,0.9762,0.9733,0.9689,0.9622,0.9609,0.9593,0.9588,0.9584,0.9577,0.9538,0.9529,0.962,0.962,0.962,0,0,1.0129,1.0098,1.0073,1.0013,0.9984,0.994,0.9955,0.9908,0.9875,0.9869,0.9809,0.9786,0.9741,0.9676,0.9646,0.9655,0.955,0.9579,0.9576,0.9571,0.9533,0.9524,0.9517,0.9618,0.9618,0.9619,0,0,1.0074,1.0048,1.0001,0.9973,0.993,0.991,0.99,0.9855,0.9839,0.978,0.9774,0.9734,0.9657,0.9625,0.9598,0.9532,0.9528,0.9519,0.9491,0.9453,0.9446,0.9439,0.9413,0.9404,0.9513,0.9513,0.9513,0,1.0057,0.9993,0.9977,0.9931,0.9903,0.9899,0.985,0.9822,0.9767,0.9747,0.9758,0.9661,0.9631,0.9557,0.9541,0.9521,0.9506,0.9523,0.9449,0.9442,0.9435,0.941,0.94,0.9512,0.9512,0.9512,0.9512,0,0.9973,0.9928,0.9896,0.9843,0.9813,0.9765,0.9741,0.9711,0.9704,0.9683,0.9621,0.9585,0.9533,0.9516,0.9507,0.9441,0.9447,0.9454,0.9471,0.9426,0.9401,0.9392,0.951,0.951,0.9511,0.9511,0,0,0.991,0.9851,0.9838,0.9814,0.9767,0.9731,0.9683,0.9634,0.9608,0.9571,0.9528,0.9464,0.9469,0.944,0.9427,0.9395,0.9341,0.9405,0.9403,0.9392,0.9263,0.9256,0.9245,0.934,0.9338,0.9337,0.9266,0,0.9847,0.9763,0.9748,0.9674,0.9631,0.9626,0.9584,0.955,0.9529,0.9489,0.9466,0.942,0.9433,0.9414,0.9382,0.9355,0.9315,0.936,0.9297,0.9295,0.9305,0.9233,0.9225,0.916,0.9257,0.9255,0.9254,0,0.9762,0.9724,0.9646,0.9603,0.9585,0.9547,0.95,0.9463,0.9423,0.9411,0.9378,0.937,0.9318,0.9341,0.9268,0.9299,0.9273,0.9256,0.9253,0.9243,0.9269,0.9218,0.9139,0.9128,0.9239,0.924,0.9241,0,0.9721,0.9649,0.9593,0.9572,0.9522,0.9496,0.9473,0.9436,0.9407,0.9366,0.9346,0.93,0.9273,0.9236,0.9215,0.9234,0.9142,0.9165,0.9128,0.9128,0.9106,0.9107,0.9018,0.9095,0.9095,0.9095,0.9095,0,0.965,0.9602,0.9573,0.9538,0.9483,0.9466,0.9412,0.9389,0.9356,0.9315,0.9309,0.927,0.9246,0.9203,0.9186,0.9127,0.9116,0.9102,0.9097,0.91,0.9102,0.908,0.9083,0.9092,0.9093,0.9094,0.9094,0,0.9593,0.9572,0.951,0.9468,0.9457,0.9418,0.9381,0.9346,0.9327,0.9275,0.9261,0.923,0.918,0.9156,0.9093,0.9082,0.9013,0.9013,0.9026,0.9024,0.8987,0.899,0.8879,0.8862,0.8953,0.8953,0.8952,0,0.9548,0.951,0.9465,0.9438,0.9416,0.9372,0.9343,0.9325,0.9295,0.9247,0.9217,0.9167,0.9125,0.9044,0.9015,0.8966,0.8963,0.8928,0.8955,0.8959,0.8958,0.896,0.8954,0.8921,0.892,0.892,0.8919,0,0.9469,0.946,0.942,0.9375,0.9341,0.9304,0.9268,0.9246,0.9222,0.9188,0.9137,0.9105,0.9042,0.8991,0.8941,0.8916,0.8912,0.8911,0.89,0.89,0.8908,0.89,0.9009,0.8913,0.8913,0.8914,0.8914,0.8914,0.9413,0.9379,0.9342,0.9296,0.9268,0.9235,0.9199,0.9176,0.9134,0.9081,0.9074,0.9019,0.8979,0.8912,0.8885,0.8841,0.8849,0.8833,0.8828,0.8823,0.882,0.8919,0.8832,0.8832,0.8833,0.8833,0.8833,0,0.9331,0.9307,0.9266,0.9216,0.918,0.9183,0.9144,0.9112,0.9064,0.9029,0.8989,0.8929,0.888,0.8848,0.8798,0.8768,0.8765,0.8755,0.8755,0.8749,0.8817,0.8831,0.8759,0.8759,0.8759,0.8759,0.8759,0.8759,0.9284,0.9225,0.9213,0.914,0.9117,0.9064,0.904,0.9009,0.898,0.8915,0.8875,0.8855,0.882,0.8767,0.8721,0.8713,0.8693,0.8683,0.8674,0.8737,0.8745,0.8752,0.8764,0.868,0.8679,0.8609,0.8608,0.8608]}]]